This is the latest recevied weather packets stored in our database for station/object p43g-13. If no packets are shown the sender has not sent any weather packets the latest 10 day(s).
| Time | Temp. | Humidity | Pressure | Rain* | Wind** | Luminosity | Snow |
|---|---|---|---|---|---|---|---|
| 1787830675 | 28.89° C | 83% | 1011.8 hPa | 0 mm | - | 114 W/m² | - |
| 1787830375 | 28.89° C | 82% | 1011.7 hPa | 0 mm | - | 73 W/m² | - |
| 1787830075 | 28.33° C | 83% | 1011.6 hPa | 0 mm | - | 84 W/m² | - |
| 1787829775 | 28.33° C | 84% | 1011.4 hPa | 0 mm | - | 56 W/m² | - |
| 1787829463 | 28.33° C | 84% | 1011.5 hPa | 0 mm | - | 36 W/m² | - |
| 1787829163 | 28.33° C | 84% | 1011.6 hPa | 0 mm | - | 39 W/m² | - |
| 1787828863 | 28.33° C | 84% | 1011.5 hPa | 0 mm | - | 47 W/m² | - |
| 1787828563 | 28.33° C | 84% | 1011.4 hPa | 0 mm | - | 29 W/m² | - |
| 1787828263 | 28.33° C | 83% | 1011.5 hPa | 0 mm | - | 25 W/m² | - |
| 1787827963 | 28.33° C | 83% | 1011.4 hPa | 0 mm | - | 22 W/m² | - |
| 1787827662 | 28.33° C | 84% | 1011.7 hPa | 0 mm | - | 18 W/m² | - |
| 1787827351 | 28.33° C | 84% | 1011.3 hPa | 0 mm | - | 11 W/m² | - |
| 1787827051 | 28.33° C | 84% | 1011.5 hPa | 0 mm | - | 8 W/m² | - |
| 1787826751 | 28.33° C | 83% | 1011.3 hPa | 0 mm | - | 5 W/m² | - |
| 1787826440 | 28.33° C | 83% | 1011.3 hPa | 0 mm | - | 3 W/m² | - |
| 1787826139 | 28.33° C | 83% | 1011.1 hPa | 0 mm | - | 0 W/m² | - |
| 1787825838 | 28.33° C | 83% | 1011 hPa | 0 mm | - | 0 W/m² | - |
| 1787825527 | 28.33° C | 83% | 1011.2 hPa | 0 mm | - | 0 W/m² | - |
| 1787825227 | 28.33° C | 83% | 1011.1 hPa | 0 mm | - | 0 W/m² | - |
| 1787824926 | 28.33° C | 84% | 1011 hPa | 0 mm | - | 0 W/m² | - |
| 1787824615 | 28.33° C | 84% | 1011 hPa | 0 mm | - | 0 W/m² | - |
| 1787824354 | 28.33° C | 84% | 1011.1 hPa | 0 mm | - | 0 W/m² | - |
| 1787824015 | 28.33° C | 84% | 1010.8 hPa | 0 mm | - | 0 W/m² | - |
| 1787823703 | 28.33° C | 84% | 1010.7 hPa | 0 mm | - | 0 W/m² | - |
| 1787823403 | 28.33° C | 85% | 1010.9 hPa | 0 mm | - | 0 W/m² | - |
* Rain latest hour (hover to see other rain measurements)
** Current wind speed in m/s (hover to see current wind gust speed)